CZ-4 DEB

基本信息
目录编号:
20887
目录名称:
CZ-4 DEB
国际标识:
1990-081AX
轨道中心:
EARTH
物体状态:
在轨
发射日期:
1990-09-03 UTC
轨道信息
数据来源: 国际轨道数据
星历时间: 2026-07-13T08:29:50+0800
半长轴: 7093.348km
偏心率: 0.0019311
轨道倾角: 98.407°
近地点辐角: 80.513°
升交点赤经: 205.526°
平近点角: 304.808°
近地点: 701.513km
远地点: 728.909km
周期: 99.092分钟
每日圈数: 14.532018
详细信息
发射场:
TSC
轨道高度:
LEO
数据来源:
AOE Integration Group
参考系:
TEME
时间系统:
UTC
历元类型:
SGP4
2D轨道图
3D轨道图
轨道高度分析图
轨道倾角分析图
轨道综合分析图
查看轨道综合分析图